Track ZHANGHENG-1 now! 10-day predictions ZHANGHENG-1 is classified as:
1 43194U 18015C 24278.16600920 .00038971 00000-0 17472-2 0 9994 2 43194 97.6231 63.0434 0003673 159.8549 200.2831 15.21105012370252